* Astronomy

Members Login
Username 
 
Password 
    Remember Me  
Post Info TOPIC: Asteroid 2009 DH39


L

Posts: 131433
Date:
Asteroid 2009 DH39
Permalink  
 


Asteroid 2009 DH39 = 9D63366 (NEOCPO)
Orbital elements:
2009 DH39 PHA, Earth MOID = 0.0154 AU
Epoch 2009 Feb. 18.0 TT = JDT 2454880.5 MPC
M 340.75837 (2000.0) P Q
n 0.33134774 Peri. 62.34917 -0.64748013 +0.69310237
a 2.0682993 Node 156.12471 -0.56594212 -0.71573439
e 0.6270240 Incl. 51.51530 +0.51037142 +0.08563523
P 2.97 H 18.7 G 0.15
From 11 observations 2009 Feb. 25.
MPEC 2009 -D63

__________________
Page 1 of 1  sorted by
 
Quick Reply

Please log in to post quick replies.



Create your own FREE Forum
Report Abuse
Powered by ActiveBoard